Regional Weather Roundup
Issued by NWS Glasgow, MT

Home | Current Version | Previous Version | Text Only | Print | Product List | Glossary On
Versions: 1 2 3 4 5 6 7 8 9 10 11 12 13 14 15 16 17 18 19 20 21 22 23 24 25 26 27 28 29 30 31 32 33 34 35 36 37 38 39 40 41 42 43 44 45 46 47 48 49 50
000
ASUS45 KGGW 232015
RWRGGW
HOURLY REGIONAL WEATHER ROUNDUP FOR NORTHEAST MONTANA
NATIONAL WEATHER SERVICE GLASGOW MONTANA
100 PM MST THU NOV 23 2017

NOTE: "FAIR" INDICATES FEW OR NO CLOUDS BELOW 12,000 FEET WITH NO
SIGNIFICANT WEATHER AND/OR OBSTRUCTIONS TO VISISBILITY.

NORTHEAST MONTANA


CITY           SKY/WX    TMP DP  RH WIND       PRES   REMARKS
GLASGOW        CLOUDY    71  37  28 W25G39    29.53F
PLENTYWOOD       N/A     67  35  30 W12G28      N/A
WOLF POINT     SUNNY     67  39  35 SW21      29.53F
JORDAN           N/A     70  36  28 SW22G32   29.61F
WINNETT          N/A     73  30  20 SW15G28     N/A
SIDNEY         CLOUDY    57  41  55 S10       29.56F
GLENDIVE       CLOUDY    65  40  39 SW23G31   29.62F
MALTA            N/A     73  38  27 SW23G40     N/A
SCOBEY           N/A     67  38  34 SW30G49   29.48F HAZE

FORT PECK REPORTS


CITY           SKY/WX    TMP DP  RH WIND       PRES   REMARKS
FORT PECK        N/A     57  43  59 S23         N/A

SOUTHEAST MONTANA


CITY           SKY/WX    TMP DP  RH WIND       PRES   REMARKS
BILLINGS       MOSUNNY   65  39  38 SW15      29.76F
MILES CITY     MOSUNNY   67  43  41 SW7       29.69F
BAKER          CLOUDY    67  40  37 W22G28    29.71F
LIVINGSTON     SUNNY     65  39  38 SW43G55   29.78F

CENTRAL MONTANA


CITY           SKY/WX    TMP DP  RH WIND       PRES   REMARKS
HAVRE          SUNNY     69  40  34 SW37G52   29.51F
LEWISTOWN      SUNNY     67  35  30 SW36G51   29.69F
GREAT FALLS    SUNNY     67  35  30 SW25G45   29.62F
CUT BANK       PTSUNNY   55  44  66 SW23      29.60S
HELENA         SUNNY     66  38  35 SW17G32   29.73F
BUTTE          SUNNY     58  32  37 SW16G37   29.90F
BOZEMAN        SUNNY     61  37  41 SW16G25   29.84F

WESTERN MONTANA


CITY           SKY/WX    TMP DP  RH WIND       PRES   REMARKS
MISSOULA       LGT RAIN  53  48  83 N10       29.80F
KALISPELL      NOT AVBL

NORTH DAKOTA


CITY           SKY/WX    TMP DP  RH WIND       PRES   REMARKS
WILLISTON      SUNNY     59  40  49 S6        29.53F
DICKINSON      CLOUDY    69  37  30 W22G30    29.62F
MINOT          CLOUDY    57  41  55 SW15      29.50F
BISMARCK       SUNNY     71  42  35 W12       29.62F

SOUTHERN SASKATCHEWAN


CITY           SKY/WX    TMP DP  RH WIND       PRES   REMARKS
REGINA         PTSUNNY   41  36  81 SW8       29.33F
MOOSE JAW      PTSUNNY   50  41  71 W25G32    29.33S
ESTEVAN        PTSUNNY   54  41  62 SW15      29.42F
SWIFT CURRENT  SUNNY     55  43  62 W17G28    29.35F




USA.gov is the U.S. government's official web portal to all federal, state and local government web resources and services.